Météo Nord-Pas-de-Calais   La météo au plus près de chez vous

Station météorologique

Observations météo à Trappes (78621)

78621001 167 m Dernier relevé à 06:06
13.6°C
Humidité 87 % Vent 5 km/h 1021.9 hPa

Journée consultée

Mardi 1 Septembre 2026

Synthèse de la journée

Périodes de référence en UTC

Température maximale

22.9°C

à 15:00

06h 06h

Température minimale

13.5°C

à 01:18

18h 18h

Rafale maximale

16 km/h

à 03:24

00h 00h

Précipitations

0.6 mm

Cumul quotidien

06h 06h

Ensoleillement

0h 0 mins

Durée quotidienne

00h 00h

Graphiques de la journée

Heure locale Réduire

Données détaillées

Relevés météo

Pas de 6 minutes Afficher les relevés infra-horaires
Relevés météo détaillés à Trappes pour le Mardi 1 Septembre 2026
Heure Température °C Point de rosée °C Humidité % Vent moyen (raf.), km/h Précipitations mm Température à 10 cm °C Température à 20 cm °C Température à 50 cm °C Température à 100 cm °C Visibilité m Hauteur neige cm Ensoleillement min Rayonnement global W/m² Pression hPa Nébulosité Octas
06:06 13.6 °C 11.8 °C 89 % 5 km/h (9 km/h) 0 mm0 mm 17.8 °C 18.8 °C 19.3 °C 18.9 °C 20000 m 0 cm 0 min 0 W/m² 1021.8 hPa
06:00 13.6 °C 11.8 °C 89 % 4 km/h (7 km/h) 0 mm0 mm 17.9 °C 18.8 °C 19.3 °C 18.9 °C 20000 m 0 cm 0 min 0 W/m² 1021.8 hPa
05:54 13.6 °C 11.8 °C 89 % 4 km/h (6 km/h) 0 mm0 mm 17.9 °C 18.8 °C 19.3 °C 18.9 °C 20000 m 0 cm 0 min 0 W/m² 1021.9 hPa
05:48 13.6 °C 11.8 °C 89 % 3 km/h (6 km/h) 0 mm0 mm 17.9 °C 18.8 °C 19.3 °C 18.9 °C 20000 m 0 cm 0 min 0 W/m² 1021.8 hPa
05:42 13.6 °C 11.6 °C 88 % 2 km/h (4 km/h) 0 mm0 mm 17.9 °C 18.8 °C 19.3 °C 18.9 °C 20000 m 0 cm 0 min 0 W/m² 1021.7 hPa
05:36 13.8 °C 11.8 °C 88 % 4 km/h (7 km/h) 0 mm0 mm 18 °C 18.8 °C 19.3 °C 18.9 °C 20000 m 0 cm 0 min 0 W/m² 1021.7 hPa
05:30 13.9 °C 11.9 °C 88 % 5 km/h (8 km/h) 0 mm0 mm 18 °C 18.9 °C 19.3 °C 18.9 °C 20000 m 0 cm 0 min 0 W/m² 1021.8 hPa
05:24 13.9 °C 11.9 °C 88 % 5 km/h (7 km/h) 0 mm0 mm 18 °C 18.9 °C 19.3 °C 18.9 °C 20000 m 0 cm 0 min 0 W/m² 1021.9 hPa
05:18 14 °C 11.9 °C 87 % 5 km/h (10 km/h) 0 mm0 mm 18 °C 18.9 °C 19.3 °C 18.9 °C 20000 m 0 cm 0 min 0 W/m² 1021.8 hPa
05:12 14.1 °C 12 °C 87 % 5 km/h (10 km/h) 0 mm0 mm 18 °C 18.9 °C 19.3 °C 18.9 °C 20000 m 0 cm 0 min 0 W/m² 1021.9 hPa
05:06 14.2 °C 12.1 °C 87 % 5 km/h (8 km/h) 0 mm0 mm 18 °C 18.9 °C 19.3 °C 18.9 °C 20000 m 0 cm 0 min 0 W/m² 1021.9 hPa
05:00 14.2 °C 11.9 °C 86 % 5 km/h (8 km/h) 0 mm0 mm 18.1 °C 18.9 °C 19.3 °C 18.9 °C 20000 m 0 cm 0 min 0 W/m² 1021.9 hPa
04:54 14.3 °C 12 °C 86 % 5 km/h (10 km/h) 0 mm0 mm 18.1 °C 18.9 °C 19.3 °C 18.9 °C 20000 m 0 cm 0 min 0 W/m² 1022 hPa
04:48 14.3 °C 12 °C 86 % 5 km/h (10 km/h) 0 mm0 mm 18.1 °C 19 °C 19.3 °C 18.9 °C 20000 m 0 cm 0 min 0 W/m² 1021.9 hPa
04:42 14.4 °C 12.1 °C 86 % 5 km/h (9 km/h) 0 mm0 mm 18.1 °C 19 °C 19.3 °C 18.9 °C 20000 m 0 cm 0 min 0 W/m² 1021.7 hPa
04:36 14.5 °C 12.2 °C 86 % 6 km/h (11 km/h) 0 mm0 mm 18.1 °C 19 °C 19.3 °C 18.9 °C 20000 m 0 cm 0 min 0 W/m² 1021.8 hPa
04:30 14.5 °C 12 °C 85 % 6 km/h (9 km/h) 0 mm0 mm 18.1 °C 19 °C 19.3 °C 18.9 °C 20000 m 0 cm 0 min 0 W/m² 1021.8 hPa
04:24 14.6 °C 12.1 °C 85 % 6 km/h (9 km/h) 0 mm0 mm 18.2 °C 19 °C 19.3 °C 18.9 °C 20000 m 0 cm 0 min 0 W/m² 1021.9 hPa
04:18 14.7 °C 12.2 °C 85 % 6 km/h (10 km/h) 0 mm0 mm 18.2 °C 19 °C 19.4 °C 18.9 °C 20000 m 0 cm 0 min 0 W/m² 1021.9 hPa
04:12 14.9 °C 12.2 °C 84 % 5 km/h (10 km/h) 0 mm0 mm 18.2 °C 19 °C 19.3 °C 18.9 °C 20000 m 0 cm 0 min 0 W/m² 1021.9 hPa
04:06 14.9 °C 12 °C 83 % 4 km/h (8 km/h) 0 mm0 mm 18.2 °C 19.1 °C 19.4 °C 18.9 °C 20000 m 0 cm 0 min 0 W/m² 1021.8 hPa
04:00 15 °C 12.1 °C 83 % 5 km/h (11 km/h) 0 mm0 mm 18.2 °C 19.1 °C 19.3 °C 18.9 °C 20000 m 0 cm 0 min 0 W/m² 1021.8 hPa
03:54 15.1 °C 12.2 °C 83 % 6 km/h (13 km/h) 0 mm0 mm 18.2 °C 19.1 °C 19.3 °C 18.9 °C 20000 m 0 cm 0 min 0 W/m² 1021.8 hPa
03:48 15.2 °C 12.1 °C 82 % 6 km/h (13 km/h) 0 mm0 mm 18.3 °C 19.1 °C 19.3 °C 18.9 °C 20000 m 0 cm 0 min 0 W/m² 1021.8 hPa
03:42 15.3 °C 12.1 °C 81 % 7 km/h (16 km/h) 0 mm0 mm 18.3 °C 19.1 °C 19.3 °C 18.9 °C 20000 m 0 cm 0 min 0 W/m² 1021.8 hPa
03:36 15.4 °C 12.2 °C 81 % 7 km/h (14 km/h) 0 mm0 mm 18.3 °C 19.1 °C 19.3 °C 18.9 °C 20000 m 0 cm 0 min 0 W/m² 1021.7 hPa
03:30 15.5 °C 12.1 °C 80 % 8 km/h (16 km/h) 0 mm0 mm 18.3 °C 19.2 °C 19.3 °C 18.9 °C 20000 m 0 cm 0 min 0 W/m² 1021.7 hPa
03:24 15.6 °C 12.2 °C 80 % 8 km/h (16 km/h) 0 mm0 mm 18.3 °C 19.2 °C 19.3 °C 18.9 °C 20000 m 0 cm 0 min 0 W/m² 1021.7 hPa
03:18 15.8 °C 12.2 °C 79 % 8 km/h (15 km/h) 0 mm0 mm 18.4 °C 19.2 °C 19.3 °C 18.9 °C 20000 m 0 cm 0 min 0 W/m² 1021.7 hPa
03:12 15.8 °C 12.2 °C 79 % 7 km/h (15 km/h) 0 mm0 mm 18.4 °C 19.2 °C 19.3 °C 18.9 °C 20000 m 0 cm 0 min 0 W/m² 1021.6 hPa
03:06 15.8 °C 12.2 °C 79 % 5 km/h (10 km/h) 0 mm0 mm 18.4 °C 19.2 °C 19.3 °C 18.9 °C 20000 m 0 cm 0 min 0 W/m² 1021.6 hPa
03:00 15.6 °C 12.2 °C 80 % 5 km/h (8 km/h) 0 mm0 mm 18.4 °C 19.2 °C 19.3 °C 18.9 °C 20000 m 0 cm 0 min 0 W/m² 1021.6 hPa 7 Octas
02:54 15.4 °C 12.2 °C 81 % 5 km/h (8 km/h) 0 mm0 mm 18.4 °C 19.3 °C 19.3 °C 18.9 °C 20000 m 0 cm 0 min 0 W/m² 1021.6 hPa
02:48 15.3 °C 12.2 °C 82 % 4 km/h (6 km/h) 0 mm0 mm 18.5 °C 19.3 °C 19.3 °C 18.9 °C 20000 m 0 cm 0 min 0 W/m² 1021.6 hPa
02:42 15.1 °C 12 °C 82 % 3 km/h (6 km/h) 0 mm0 mm 18.5 °C 19.3 °C 19.3 °C 18.9 °C 20000 m 0 cm 0 min 0 W/m² 1021.5 hPa
02:36 15.1 °C 12 °C 82 % 4 km/h (6 km/h) 0 mm0 mm 18.5 °C 19.3 °C 19.3 °C 18.9 °C 20000 m 0 cm 0 min 0 W/m² 1021.5 hPa
02:30 15 °C 12.1 °C 83 % 4 km/h (6 km/h) 0 mm0 mm 18.6 °C 19.3 °C 19.3 °C 18.9 °C 20000 m 0 cm 0 min 0 W/m² 1021.5 hPa
02:24 14.8 °C 11.9 °C 83 % 4 km/h (7 km/h) 0 mm0 mm 18.6 °C 19.4 °C 19.3 °C 18.9 °C 20000 m 0 cm 0 min 0 W/m² 1021.5 hPa
02:18 14.8 °C 11.9 °C 83 % 4 km/h (7 km/h) 0 mm0 mm 18.6 °C 19.4 °C 19.3 °C 18.9 °C 20000 m 0 cm 0 min 0 W/m² 1021.4 hPa
02:12 14.7 °C 12 °C 84 % 4 km/h (7 km/h) 0 mm0 mm 18.6 °C 19.4 °C 19.3 °C 18.9 °C 20000 m 0 cm 0 min 0 W/m² 1021.4 hPa
02:06 14.5 °C 12 °C 85 % 3 km/h (5 km/h) 0 mm0 mm 18.7 °C 19.4 °C 19.3 °C 18.9 °C 20000 m 0 cm 0 min 0 W/m² 1021.5 hPa
02:00 14.4 °C 12.1 °C 86 % 4 km/h (6 km/h) 0 mm0 mm 18.7 °C 19.4 °C 19.3 °C 18.9 °C 20000 m 0 cm 0 min 0 W/m² 1021.5 hPa
01:54 14.2 °C 12.1 °C 87 % 4 km/h (6 km/h) 0 mm0 mm 18.7 °C 19.5 °C 19.3 °C 18.9 °C 20000 m 0 cm 0 min 0 W/m² 1021.6 hPa
01:48 14.1 °C 12 °C 87 % 3 km/h (5 km/h) 0 mm0 mm 18.8 °C 19.5 °C 19.3 °C 18.9 °C 20000 m 0 cm 0 min 0 W/m² 1021.6 hPa
01:42 13.7 °C 11.7 °C 88 % 2 km/h (3 km/h) 0 mm0 mm 18.8 °C 19.5 °C 19.3 °C 18.9 °C 20000 m 0 cm 0 min 0 W/m² 1021.6 hPa
01:36 13.6 °C 11.6 °C 88 % 0 km/h (3 km/h) 0 mm0 mm 18.8 °C 19.5 °C 19.3 °C 18.9 °C 16480 m 0 cm 0 min 0 W/m² 1021.5 hPa
01:30 13.6 °C 11.6 °C 88 % 2 km/h (4 km/h) 0 mm0 mm 18.9 °C 19.5 °C 19.3 °C 18.9 °C 16480 m 0 cm 0 min 0 W/m² 1021.5 hPa
01:24 13.6 °C 11.8 °C 89 % 3 km/h (4 km/h) 0 mm0 mm 18.9 °C 19.6 °C 19.3 °C 18.9 °C 20000 m 0 cm 0 min 0 W/m² 1021.4 hPa
01:18 13.5 °C 11.5 °C 88 % 3 km/h (4 km/h) 0 mm0 mm 18.9 °C 19.6 °C 19.3 °C 18.9 °C 20000 m 0 cm 0 min 0 W/m² 1021.4 hPa
01:12 13.6 °C 11.5 °C 87 % 2 km/h (3 km/h) 0 mm0 mm 19 °C 19.6 °C 19.3 °C 18.9 °C 20000 m 0 cm 0 min 0 W/m² 1021.4 hPa
01:06 13.8 °C 11.5 °C 86 % 2 km/h (3 km/h) 0 mm0 mm 19 °C 19.6 °C 19.3 °C 18.9 °C 20000 m 0 cm 0 min 0 W/m² 1021.4 hPa
01:00 13.8 °C 11.3 °C 85 % 0 km/h (3 km/h) 0 mm0 mm 19 °C 19.6 °C 19.3 °C 18.9 °C 20000 m 0 cm 0 min 0 W/m² 1021.4 hPa
00:54 14 °C 11.5 °C 85 % 0 km/h (2 km/h) 0 mm0 mm 19.1 °C 19.7 °C 19.3 °C 18.9 °C 20000 m 0 cm 0 min 0 W/m² 1021.4 hPa
00:48 14 °C 11.3 °C 84 % 0 km/h (2 km/h) 0 mm0 mm 19.1 °C 19.7 °C 19.3 °C 18.9 °C 20000 m 0 cm 0 min 0 W/m² 1021.4 hPa
00:42 14.3 °C 11.4 °C 83 % 2 km/h (4 km/h) 0 mm0 mm 19.1 °C 19.7 °C 19.3 °C 18.9 °C 20000 m 0 cm 0 min 0 W/m² 1021.4 hPa
00:36 14.4 °C 11.5 °C 83 % 3 km/h (4 km/h) 0 mm0 mm 19.2 °C 19.7 °C 19.3 °C 18.9 °C 20000 m 0 cm 0 min 0 W/m² 1021.4 hPa
00:30 14.5 °C 11.5 °C 82 % 2 km/h (4 km/h) 0 mm0 mm 19.2 °C 19.7 °C 19.3 °C 18.9 °C 20000 m 0 cm 0 min 0 W/m² 1021.4 hPa
00:24 14.6 °C 11.6 °C 82 % 2 km/h (4 km/h) 0 mm0 mm 19.2 °C 19.7 °C 19.3 °C 18.9 °C 20000 m 0 cm 0 min 0 W/m² 1021.4 hPa
00:18 14.9 °C 11.7 °C 81 % 3 km/h (5 km/h) 0 mm0 mm 19.3 °C 19.8 °C 19.3 °C 18.9 °C 20000 m 0 cm 0 min 0 W/m² 1021.3 hPa
00:12 14.7 °C 11.7 °C 82 % 4 km/h (5 km/h) 0 mm0 mm 19.3 °C 19.8 °C 19.3 °C 18.9 °C 20000 m 0 cm 0 min 0 W/m² 1021.3 hPa
00:06 14.5 °C 11.5 °C 82 % 2 km/h (5 km/h) 0 mm0 mm 19.3 °C 19.8 °C 19.3 °C 18.9 °C 20000 m 0 cm 0 min 0 W/m² 1021.3 hPa
00:00 14.6 °C 11.2 °C 80 % 0 km/h (2 km/h) 0 mm0 mm 19.4 °C 19.8 °C 19.3 °C 18.9 °C 20000 m 0 cm 0 min 0 W/m² 1021.3 hPa

Données via Météo-France

Relevés météo à Trappes

Cette page rassemble les observations de la station de Trappes : température, humidité, vent, précipitations et pression atmosphérique. Les graphiques facilitent le suivi de la journée, tandis que le tableau donne accès aux mesures horaires et infra-horaires disponibles.

Pour replacer ces mesures dans leur contexte, consultez la climatologie de Trappes ainsi que ses normales et records. Retrouvez aussi la carte des observations météo en temps réel.